Location: Unspecified
(0.0000°N, 0.0000°E)
Time: 08:04:17
(UTC+00:00)

deb Midas III - Pass Details

Date: 11 March 2026
Orbit: 3314 x 3545 km, 91.1° (Epoch: 18 April)

Event Time Altitude Azimuth Distance (km) Brightness Sun altitude
Rises 02:19:17 0° 179° (S) 7,610 ? -57.5°
Reaches altitude 10° 02:23:33 10° 180° (S) 6,576 ? -56.5°
Enters shadow 02:33:04 41° 188° (S) 4,499 ? -54.1°
Exits shadow 02:56:11 20° 344° (NNW) 5,598 ? -48.3°
Drops below altitude 10° 02:59:43 10° 347° (NNW) 6,422 ? -47.5°
Sets 03:03:53 0° 349° (N) 7,426 ? -46.4°
